This is the latest recevied weather packets stored in our database for station/object TAPIOLA. If no packets are shown the sender has not sent any weather packets the latest 10 day(s).
| Time | Temp. | Humidity | Pressure | Rain* | Wind** | Luminosity | Snow |
|---|---|---|---|---|---|---|---|
| 1777537612 | 8.33° C | 78% | 1021.6 hPa | 0 mm | - | - | - |
| 1777536412 | 7.78° C | 80% | 1021.8 hPa | 0 mm | - | - | - |
| 1777535213 | 7.78° C | 76% | 1021.7 hPa | 0 mm | - | - | - |
| 1777534012 | 7.22° C | 75% | 1021.8 hPa | 0 mm | - | - | - |
| 1777532812 | 7.22° C | 73% | 1021.8 hPa | 0 mm | - | - | - |
| 1777531612 | 6.67° C | 72% | 1021.7 hPa | 0 mm | - | - | - |
| 1777530412 | 6.67° C | 71% | 1021.6 hPa | 0 mm | - | - | - |
| 1777529212 | 5.56° C | 72% | 1021.7 hPa | 0 mm | - | - | - |
| 1777528012 | 5° C | 72% | 1022 hPa | 0 mm | - | - | - |
| 1777526811 | 5° C | 71% | 1022.2 hPa | 0 mm | - | - | - |
| 1777525612 | 4.44° C | 71% | 1022.2 hPa | 0 mm | - | - | - |
| 1777524412 | 4.44° C | 70% | 1022.5 hPa | 0 mm | - | - | - |
| 1777523211 | 4.44° C | 68% | 1022.5 hPa | 0 mm | - | - | - |
| 1777522011 | 4.44° C | 67% | 1022.3 hPa | 0 mm | - | - | - |
| 1777520812 | 4.44° C | 67% | 1022.4 hPa | 0 mm | - | - | - |
| 1777519611 | 3.89° C | 65% | 1022.4 hPa | 0 mm | - | - | - |
| 1777518412 | 3.89° C | 64% | 1022.5 hPa | 0 mm | - | - | - |
| 1777517211 | 3.89° C | 63% | 1022.4 hPa | 0 mm | - | - | - |
| 1777516011 | 3.89° C | 62% | 1022.5 hPa | 0 mm | - | - | - |
| 1777514811 | 3.89° C | 60% | 1022.8 hPa | 0 mm | - | - | - |
| 1777513611 | 3.89° C | 59% | 1022.5 hPa | 0 mm | - | - | - |
| 1777512411 | 3.89° C | 59% | 1022.7 hPa | 0 mm | - | - | - |
| 1777511211 | 3.89° C | 58% | 1023 hPa | 0 mm | - | - | - |
| 1777510011 | 3.89° C | 58% | 1023.5 hPa | 0 mm | - | - | - |
| 1777508810 | 3.89° C | 57% | 1023.4 hPa | 0 mm | - | - | - |
* Rain latest hour (hover to see other rain measurements)
** Current wind speed in m/s (hover to see current wind gust speed)